Flag Weather past 2 weeks in Hamamatsu, Japan

Now
65 °F

Mild.


Feels Like: 65 °F
Forecast: 63 / 64 °F
Wind: 10 mph from Northeast

Location: Omaezaki

Current Time: Nov 1, 2014 at 4:22:40 AM

Latest Report: Nov 1, 2014 at 3:00 AM


Visibility: 13 mi

Pressure: 30.11 "Hg

Humidity: 83%

Dew point: 60 °F

Location of HamamatsuLocation

Historic Weather in Hamamatsu — Graph

°F

Hamamatsu temperature yesterday

Maximum temperature yesterday: 67 °F (at 11:00 AM)
Minimum temperature yesterday: 63 °F (at 4:00 AM)
Average temperature yesterday: 65 °F

Past Weeks' High & Low Weather Summary

 TemperatureHumidityPressure
High73 °F (Oct 17, 12:00 PM)100% (Oct 21, 1:00 AM)30.34 "Hg (Oct 21, 1:00 AM)
Low51 °F (Oct 28, 6:00 AM)35% (Oct 17, 11:00 AM)29.78 "Hg (Oct 22, 1:00 PM)
Average65 °F76%30.12 "Hg
* Reported Oct 17 2:00 AM — Nov 1 2:00 AM, Hamamatsu, Weather by CustomWeather, © 2014

Note: Actual official high and low records may vary slightly from our data, if they occured in-between our weather recording intervals... More about our weather records

Advertising

Hamamatsu weather history for previous 24 hours

 ConditionsComfort  
Time TempWeatherWind HumidityBarometerVisibility
2:00 AM
Nov 1
65 °FMild.9 mph88%30.12 "Hg12 mi
1:00 AM65 °FMild.7 mph91%30.14 "Hg12 mi
12:00 AM65 °FMild.7 mph93%30.15 "Hg12 mi
11:00 PM
Oct 31
65 °FMild.8 mph95%30.16 "Hg12 mi
10:00 PM64 °FMild.9 mph94%30.19 "Hg12 mi
9:00 PM64 °FMild.10 mph96%30.19 "Hg12 mi
8:00 PM64 °FMild.9 mph98%30.20 "Hg12 mi
7:00 PM64 °FMild.8 mph100%30.20 "Hg11 mi
6:00 PM64 °FLight rain. Overcast.8 mph100%30.20 "Hg5 mi
5:00 PM64 °FMild.6 mph100%30.20 "Hg7 mi
4:00 PM65 °FLight rain. Overcast.5 mph96%30.20 "Hg12 mi
3:00 PM65 °FLight rain. Cloudy.3 mph97%30.20 "Hg12 mi
2:00 PM65 °FLight rain. Cloudy.3 mph98%30.20 "Hg3 mi
1:00 PM65 °FLight rain. Cloudy.3 mph92%30.21 "Hg4 mi
12:00 PM66 °FLight rain. Cloudy.7 mph94%30.22 "Hg12 mi
11:00 AM67 °FLight rain. Cloudy.5 mph96%30.25 "Hg9 mi
10:00 AM66 °FMild.7 mph95%30.25 "Hg12 mi
9:00 AM65 °FLight rain. Cloudy.6 mph95%30.27 "Hg11 mi
8:00 AM65 °FMild.9 mph94%30.27 "Hg12 mi
7:00 AM64 °FLight rain. Cloudy.7 mph97%30.27 "Hg10 mi
6:00 AM64 °FLight rain. Cloudy.8 mph95%30.25 "Hg9 mi
5:00 AM64 °FMild.7 mph96%30.25 "Hg10 mi
4:00 AM63 °FLight rain. Overcast.6 mph97%30.25 "Hg10 mi
Weather by CustomWeather, © 2014

See weather overviewHow to use our weather pages